Погода Шарья

Погода Шарья : погода сейчас, прогноз погоды и архив. Всё, что Вы хотите узнать о погоде Шарья!

Хотите узнать прогноз погоды Шарья? Тогда Вам сюда: Погода Шарья

Поиск расширенной информации на нашем сайте:

Другие новости

Новости СМИ2

Главная страница сайта

Новости сайта

03.07.2017

Напоминаем, что на нашем специализированном сайте Метеоцентр.Азия вы можете получить высокодетализированные автоматические прогнозы погоды по пунктам России, СНГ и мира в авиационном формате (включающие направление и скорость ветра, видимость, явления погоды, количество и форму облачности, нижнюю и верхнюю границу облачности).

Рекомендуем: Чемпионат техника выполнения упражнений по бодибилдингу.

Погода Шарья - сегодня

Время (UTC), дата Ветер
(°,м/с) 
Видим.   Явления Облачность Т
(°С)
Тd
(°С)
f(%) Тe
(°С)
Pmin
(гПа)
dP
(гПа)
Po
(мм)
O2
(г/м3)
Тmin Tmax R s Состояние
почвы
15 17.10.17 230 (ЮЗ) 10 км  {ливн. осадки}  8/8 600 м кучево-дожд. 
[Cb cap]
+4.5 +3.5 93 +5  1003.8  0.9  741  293    +6.6     
18 17.10.17 230 (ЮЗ) 10 км  {ливн. осадки}  ясно 
+4.4 +3.1 91 +4  1003.5  -0.3  741  293           
21 17.10.17 240 (ЮЗ) 10 км    10/10 600 м 
[Sc]
+5.5 +3.1 85 +5  1003.5  0.1  741  292           
00 18.10.17 230 (ЮЗ) 10 км    10/10 600 м 
[Sc]
+4.1 +2.2 87 +4  1003.5  -0.2  741  294           
03 18.10.17 220 (ЮЗ) 10 км    10/10 600 м 
[Sc]
+3.6 +2 89 +3  1002.6  -0.9  740  294  +3.6         
06 18.10.17 190 (Ю) 10 км    10/4 1000 м средняя 
[Sc|Ac und]
+4.4 +2.5 87 +4  1000.9  -1.6  739  293  +3.6         
09 18.10.17 180 (Ю) 4000 м  слаб. дождь  10/10 300 м 
[Frnb|Ns]
+4.5 +3.8 95 +4  998.1  -2.7  737  292           
12 18.10.17 180 (Ю) 2000 м  слаб. дождь{морось}  10/10 300 м 
[Frnb|Ns]
+5.3 +4.7 96 +5  996  -2  736  290           
15 18.10.17 200 (Ю) 1000 м  дождь  10/10 300 м 
[Frnb|Ns]
+7.2 +6.5 95 +7  994.4  -1.5  735  287    +7.2     
18 18.10.17 230 (ЮЗ) 4000 м  слаб. морось{дождь}  10/10 300 м 
[St]
+9.2 +8.2 93 +9  993.3  -0.9  734  285           
21 18.10.17 230 (ЮЗ) 10 км  {морось}  10/10 600 м 
[Sc]
+9.4 +8 91 +8  991.7  -1.6  733  284           
00 19.10.17 270 (З) 5{11}  10 км  {морось}  10/3 600 м средняя, верхняя 
[Sc|Ac trans|Ci fib]
+7.4 +5.2 86 +6  991.8  733  287           
03 19.10.17 300 (СЗ) 5{15}  10 км  в посл. час ливневой дождь  10/10 600 м кучево-дожд. 
[Cb cap]
+4 +2 87 +2  997  4.9  736  292  +4       
06 19.10.17 290 (З) 4{10}  10 км  {ливн. осадки}  10/8 600 м кучево-дожд., средняя 
[Cb cap|Ac trans]
+4 +1.8 86 +2  999.9  2.8  739  293  +3.4         
09 19.10.17 300 (СЗ) 5{10}  10 км  слаб. ливневой дождь  10/10 300 м кучево-дожд. 
[Cb cap]
+4.5 +2 84 +2  1002.3  2.3  740  293           
12 19.10.17 290 (З) 4{11}  4000 м  слаб. ливневой дождь  10/10 300 м кучево-дожд. 
[Cb cap]
+4.9 +2.2 83 +3  1004.5  2.1  742  293           
15 19.10.17 280 (З) 10 км  {ливн. осадки}  10/10 300 м кучево-дожд. 
[Cb cap]
+4.3 +1.8 84 +3  1006.5  743  295    +5.2  0.3     
18 19.10.17 310 (СЗ) 4{10}  10 км  {ливн. осадки}  10/8 300 м кучево-дожд., средняя 
[Cb cap|Ac trans]
+3.4 +0.9 84 +1  1008.2  1.5  745  296           
21 19.10.17 310 (СЗ) 10 км    3/0 средняя 
[Ac trans]
+1 -0.5 90 1010.1  1.7  746  299           
00 20.10.17 310 (СЗ) 10 км    ясно 
-0.5 -1.3 94 -1  1011.9  1.7  747  302           
03 20.10.17 320 (СЗ) 10 км    10/4 600 м средняя 
[Sc|Ac und]
+0.2 -1.3 90 -1  1013.5  1.6  748  301  -0.5         
06 20.10.17 330 (СЗ) 10 км    10/3 600 м средняя, верхняя 
[Sc|Ac trans|Ci sp]
+0.2 -2 85 -2  1015.6  2.1  750  302  -0.5         
09 20.10.17 330 (СЗ) 10 км    10/8 600 м кучево-дожд., средняя 
[Cb cap|Ac trans]
+1.7 -3.6 68 1016.9  1.3  751  301           
12 20.10.17 350 (С) 10 км    8/3 600 м кучево-дожд., средняя, верхняя 
[Cb cap|Ac cuf|Cc]
+1.1 -4 69 1017.3  0.4  751  302           
15 20.10.17 290 (З) 10 км  {ливн. осадки}  10/3 600 м средняя 
[Sc|Ac trans]
-0.1 -1.6 90 +1  1017.8  0.4  752  303    +3.2  0.0     
Время (UTC), дата Ветер
(°,м/с) 
Видим.   Явления Облачность Т
(°С)
Тd
(°С)
f(%) Тe
(°С)
Pmin
(гПа)
dP
(гПа)
Po
(мм)
O2
(г/м3)
Тmin Tmax R s Состояние
почвы

Для получения пояснительной информации подведите курсор к названию столбца.

ПОГОДА Шарья - архив

Всё, что Вы хотите узнать о погоде Шарья - удобно и подробно!

Выберите нужную дату (начиная с 1 января 2015* года) и нажмите кнопку "Найти".
Будут отображены архивные сводки погоды по пункту Шарья, начиная с указанной даты.


Отображать данные в формате CSV (для использования в таблицах Excel)


Внимание! Наш архив погоды предназначен исключительно для личного некоммерческого использования в познавательных целях. Если Вам необходимы официальные справки о состоянии погоды (для производственных, юридических, коммерческих и т.п. целей), обращайтесь в органы Росгидромета.

*Примечание: данная дата относится к архиву по метеостанциям СССР (Россия, СНГ, Балтия).
Архив по метеостанциям Зарубежной Европы и Азии (кроме Китая) хранится 10 дней, по другим регионам земного шара (Китай, Африка, Америка, Австралия, Океания) - 1 день.

Шарья - район местоположения метеостанции


Название, широта, долгота, высота метеостанции:
Шарья 58.4°ш. 45.5°д. 125 м над ур. моря [Российская Федерация]

Дополнительная информация

В oтличие oт бoльшинства пoгoдных сайтoв мы публикуем пoдрoбную метеoинфoрмацию в детальнoм прoфессиoнальнoм фoрмате.

Характеристики температуры и влажнoсти вoздуха измеряются на высoте 2 м в тени вдали oт зданий и деревьев.
Скoрoсть ветра измеряется на высoте 10 м (на урoвне рoста челoвека скoрoсть ветра ниже в 1.5-2 раза). Если метеoстанция нахoдится в гoрoде или в лесу, тo скoрoсть ветра занижена на 2-4 м/с пo сравнению с oткрытым местoм. Скoрoсть ветра над акватoриями крупных рек и oзёр, а также на вершинах хoлмoв на 2-5 м/с выше, чем в oбычных услoвиях.
Атмoсфернoе давление в разных тoчках местнoсти мoжет значительнo oтличаться oт давления на метеoстанции, в зависимoсти oт услoвий рельефа (при пoдъёме на 10 м давление пoнижается примернo на 1 мм рт.ст.).